User: anonymous   Login
Location: Fort Wayne
(41.1310°N, 85.1290°W)
Time: 11:37:49
(UTC-05:00)
Language:

Cosmos 1000 Rocket - Orbit

View from above orbital plane
View from above orbital plane
View from above satellite
View from above satellite

Ground track
Ground track

The orbit data is extracted from the following two-line orbital elements,

1 10777U 78034B   15060.20064468  .00000093  00000-0  78080-4 0  9995
2 10777 082.9440 134.5879 0026677 031.0414 025.6688 13.77326312854893
Epoch (UTC): 01 March 2015 04:48:55
Eccentricity: 0.0026677
inclination: 82.9440°
perigee height: 954 km
apogee height: 993 km
right ascension of ascending node: 134.5879°
argument of perigee: 31.0414°
revolutions per day: 13.77326312
mean anomaly at epoch: 25.6688°
orbit number at epoch: 85489

The dashed part of the orbit path shows where the satellite is in the earth's shadow,  

DLR